This is the latest recevied weather packets stored in our database for station/object KE5WTH-14. If no packets are shown the sender has not sent any weather packets the latest 10 day(s).
| Time | Temp. | Humidity | Pressure | Rain* | Wind** | Luminosity | Snow |
|---|---|---|---|---|---|---|---|
| 1777324746 | 33.33° C | 41% | 1007.6 hPa | 0 mm | - | 740 W/m² | - |
| 1777324670 | 33.33° C | 39% | 1007.7 hPa | 0 mm | - | 742 W/m² | - |
| 1777324608 | 33.33° C | 43% | 1007.6 hPa | 0 mm | - | 740 W/m² | - |
| 1777324546 | 33.33° C | 39% | 1007.7 hPa | 0 mm | - | 761 W/m² | - |
| 1777324487 | 33.33° C | 40% | 1007.7 hPa | 0 mm | - | 770 W/m² | - |
| 1777324425 | 33.33° C | 40% | 1007.7 hPa | 0 mm | - | 770 W/m² | - |
| 1777324366 | 33.33° C | 44% | 1007.7 hPa | 0 mm | - | 774 W/m² | - |
| 1777324300 | 33.33° C | 44% | 1007.6 hPa | 0 mm | - | 770 W/m² | - |
| 1777324271 | 33.33° C | 44% | 1007.6 hPa | 0 mm | - | 767 W/m² | - |
| 1777324242 | 33.33° C | 43% | 1007.7 hPa | 0 mm | - | 760 W/m² | - |
| 1777324208 | 33.33° C | 40% | 1007.6 hPa | 0 mm | - | 768 W/m² | - |
| 1777324052 | 33.33° C | 41% | 1007.6 hPa | 0 mm | - | 770 W/m² | - |
| 1777323990 | 33.33° C | 41% | 1007.6 hPa | 0 mm | - | 768 W/m² | - |
| 1777323927 | 33.33° C | 41% | 1007.5 hPa | 0 mm | - | 775 W/m² | - |
| 1777323864 | 33.33° C | 41% | 1007.6 hPa | 0 mm | - | 777 W/m² | - |
| 1777323803 | 33.33° C | 42% | 1007.6 hPa | 0 mm | - | 777 W/m² | - |
| 1777323743 | 33.33° C | 40% | 1007.5 hPa | 0 mm | - | 775 W/m² | - |
| 1777323677 | 33.33° C | 43% | 1007.6 hPa | 0 mm | - | 775 W/m² | - |
| 1777323621 | 33.33° C | 41% | 1007.6 hPa | 0 mm | - | 777 W/m² | - |
| 1777323589 | 33.33° C | 39% | 1007.6 hPa | 0 mm | - | 777 W/m² | - |
| 1777323560 | 33.33° C | 41% | 1007.7 hPa | 0 mm | - | 781 W/m² | - |
| 1777323525 | 33.33° C | 41% | 1007.6 hPa | 0 mm | - | 791 W/m² | - |
| 1777323494 | 33.33° C | 47% | 1007.6 hPa | 0 mm | - | 789 W/m² | - |
| 1777323337 | 33.33° C | 42% | 1007.6 hPa | 0 mm | - | 800 W/m² | - |
| 1777323306 | 33.33° C | 40% | 1007.6 hPa | 0 mm | - | 809 W/m² | - |
* Rain latest hour (hover to see other rain measurements)
** Current wind speed in m/s (hover to see current wind gust speed)